ARG2556 SBCT-SARI

Flight info

Callsign ARG2556
Flight time 0h 52m
Altitude 32000
Route EVSUP UZ161 UBGON DCT VUGLA
Aircraft B737/M-SDE2E3FGHIRWXY/LB1

Departure

Time 2026-04-30 00:28
Airport Curitiba-Afonso Pena International Airport (SBCT)

Arrival

Time 2026-04-30 01:20
Airport Cataratas Del Iguazú International Airport (SARI)
Time Latitude Longitude Altitude Speed Heading
2026-04-30 00:15 -25.53692 -49.17087 2991 ft 0 kts 225°
2026-04-30 00:23 -25.53678 -49.17071 2991 ft 4 kts 225°
2026-04-30 00:24 -25.53658 -49.17052 2992 ft 4 kts 205°
2026-04-30 00:24 -25.53634 -49.17048 2992 ft 4 kts 150°
2026-04-30 00:24 -25.53624 -49.17057 2991 ft 1 kts 134°
2026-04-30 00:24 -25.53623 -49.17058 2991 ft 0 kts 134°
2026-04-30 00:26 -25.53634 -49.17030 2992 ft 10 kts 100°
2026-04-30 00:26 -25.53619 -49.16927 2993 ft 18 kts 87°
2026-04-30 00:26 -25.53593 -49.16787 2993 ft 14 kts 37°
2026-04-30 00:27 -25.53517 -49.16826 2991 ft 33 kts 315°
2026-04-30 00:27 -25.53182 -49.17200 2987 ft 102 kts 315°
2026-04-30 00:27 -25.52547 -49.17905 2980 ft 156 kts 315°
2026-04-30 00:27 -25.51697 -49.18834 3363 ft 176 kts 317°
2026-04-30 00:28 -25.50960 -49.19974 4042 ft 189 kts 294°
2026-04-30 00:28 -25.50955 -49.21418 4831 ft 196 kts 245°
2026-04-30 00:28 -25.51659 -49.22686 5790 ft 193 kts 239°
2026-04-30 00:28 -25.52429 -49.23950 6583 ft 196 kts 237°
2026-04-30 00:29 -25.53215 -49.25191 7378 ft 203 kts 237°
2026-04-30 00:29 -25.54064 -49.26540 7679 ft 228 kts 237°
2026-04-30 00:29 -25.54986 -49.28015 8294 ft 236 kts 238°
2026-04-30 00:29 -25.55920 -49.29519 9010 ft 239 kts 238°
2026-04-30 00:30 -25.56860 -49.31043 9757 ft 240 kts 239°
2026-04-30 00:30 -25.57820 -49.32611 10045 ft 259 kts 239°
2026-04-30 00:30 -25.58827 -49.34258 10066 ft 262 kts 239°
2026-04-30 00:30 -25.59875 -49.35976 10041 ft 275 kts 240°
2026-04-30 00:31 -25.60692 -49.37869 10062 ft 270 kts 260°
2026-04-30 00:31 -25.60775 -49.39920 10577 ft 269 kts 280°
2026-04-30 00:31 -25.60337 -49.41902 11678 ft 261 kts 286°
2026-04-30 00:31 -25.59821 -49.43823 12732 ft 259 kts 287°
2026-04-30 00:32 -25.59295 -49.45739 13593 ft 264 kts 286°
2026-04-30 00:32 -25.58739 -49.47775 13849 ft 290 kts 286°
2026-04-30 00:32 -25.58137 -49.50007 14048 ft 315 kts 286°
2026-04-30 00:32 -25.57491 -49.52415 14243 ft 337 kts 286°
2026-04-30 00:33 -25.56815 -49.54948 14736 ft 347 kts 286°
2026-04-30 00:33 -25.56362 -49.56650 15215 ft 349 kts 286°
2026-04-30 00:33 -25.55445 -49.60103 16242 ft 351 kts 286°
2026-04-30 00:33 -25.54759 -49.62680 16921 ft 354 kts 286°
2026-04-30 00:34 -25.54060 -49.65310 17567 ft 358 kts 286°
2026-04-30 00:34 -25.53353 -49.67962 18244 ft 359 kts 286°
2026-04-30 00:34 -25.52641 -49.70626 18859 ft 362 kts 286°
2026-04-30 00:34 -25.51922 -49.73317 19380 ft 367 kts 286°
2026-04-30 00:35 -25.51190 -49.76054 19865 ft 372 kts 286°
2026-04-30 00:35 -25.50451 -49.78819 20407 ft 376 kts 286°
2026-04-30 00:35 -25.49705 -49.81602 20943 ft 378 kts 286°
2026-04-30 00:35 -25.48952 -49.84413 21429 ft 382 kts 286°
2026-04-30 00:36 -25.48203 -49.87207 21858 ft 386 kts 286°
2026-04-30 00:36 -25.47435 -49.90071 22300 ft 389 kts 286°
2026-04-30 00:36 -25.46661 -49.92952 22739 ft 392 kts 286°
2026-04-30 00:36 -25.45878 -49.95862 23168 ft 395 kts 286°
2026-04-30 00:37 -25.45093 -49.98782 23509 ft 399 kts 286°
2026-04-30 00:37 -25.44295 -50.01742 23890 ft 402 kts 286°
2026-04-30 00:37 -25.43491 -50.04728 24211 ft 406 kts 286°
2026-04-30 00:37 -25.42679 -50.07737 24626 ft 407 kts 286°
2026-04-30 00:38 -25.41880 -50.10696 25070 ft 407 kts 286°
2026-04-30 00:38 -25.41068 -50.13703 25495 ft 407 kts 286°
2026-04-30 00:38 -25.40256 -50.16704 25891 ft 408 kts 286°
2026-04-30 00:38 -25.39443 -50.19710 26268 ft 408 kts 286°
2026-04-30 00:39 -25.38626 -50.22726 26623 ft 410 kts 286°
2026-04-30 00:39 -25.37806 -50.25748 26994 ft 410 kts 287°
2026-04-30 00:39 -25.36986 -50.28770 27329 ft 411 kts 287°
2026-04-30 00:39 -25.36162 -50.31803 27654 ft 411 kts 287°
2026-04-30 00:40 -25.35617 -50.33806 27843 ft 412 kts 287°
2026-04-30 00:40 -25.34520 -50.37839 28231 ft 413 kts 287°
2026-04-30 00:40 -25.33690 -50.40885 28553 ft 414 kts 287°
2026-04-30 00:40 -25.32861 -50.43928 28842 ft 414 kts 287°
2026-04-30 00:41 -25.32309 -50.45951 29069 ft 414 kts 287°
2026-04-30 00:41 -25.31482 -50.48986 29489 ft 411 kts 287°
2026-04-30 00:41 -25.30657 -50.52007 29963 ft 408 kts 287°
2026-04-30 00:41 -25.29840 -50.54997 30457 ft 405 kts 287°
2026-04-30 00:42 -25.29151 -50.58007 30808 ft 407 kts 279°
2026-04-30 00:42 -25.29054 -50.61148 31067 ft 412 kts 271°
2026-04-30 00:42 -25.29128 -50.64314 31315 ft 413 kts 271°
2026-04-30 00:42 -25.29189 -50.67503 31588 ft 415 kts 271°
2026-04-30 00:43 -25.29241 -50.70697 31874 ft 417 kts 272°
2026-04-30 00:43 -25.29286 -50.73912 32097 ft 418 kts 272°
2026-04-30 00:43 -25.29324 -50.77103 32089 ft 419 kts 272°
2026-04-30 00:44 -25.29394 -50.83526 32093 ft 415 kts 272°
2026-04-30 00:44 -25.29458 -50.89897 32093 ft 413 kts 272°
2026-04-30 00:45 -25.29521 -50.96244 32091 ft 411 kts 272°
2026-04-30 00:45 -25.29580 -51.02511 32098 ft 410 kts 272°
2026-04-30 00:46 -25.29632 -51.08823 32097 ft 411 kts 272°
2026-04-30 00:46 -25.29677 -51.15143 32089 ft 411 kts 272°
2026-04-30 00:47 -25.29720 -51.21466 32078 ft 411 kts 272°
2026-04-30 00:47 -25.29761 -51.27796 32095 ft 412 kts 272°
2026-04-30 00:48 -25.29799 -51.34104 32087 ft 413 kts 272°
2026-04-30 00:48 -25.29836 -51.40460 32087 ft 414 kts 272°
2026-04-30 00:49 -25.29870 -51.46834 32082 ft 415 kts 272°
2026-04-30 00:49 -25.29901 -51.53186 32081 ft 415 kts 272°
2026-04-30 00:50 -25.29938 -51.59572 32086 ft 415 kts 272°
2026-04-30 00:50 -25.29977 -51.65958 32085 ft 415 kts 272°
2026-04-30 00:51 -25.30013 -51.72343 32091 ft 415 kts 272°
2026-04-30 00:51 -25.30045 -51.78720 32094 ft 414 kts 272°
2026-04-30 00:52 -25.30075 -51.85052 32091 ft 414 kts 272°
2026-04-30 00:52 -25.30101 -51.91423 32092 ft 414 kts 272°
2026-04-30 00:53 -25.30125 -51.97783 32096 ft 413 kts 272°
2026-04-30 00:53 -25.30146 -52.04148 32082 ft 413 kts 272°
2026-04-30 00:54 -25.30164 -52.10452 32082 ft 413 kts 272°
2026-04-30 00:54 -25.30180 -52.16793 32084 ft 412 kts 273°
2026-04-30 00:55 -25.30194 -52.23147 32083 ft 413 kts 273°
2026-04-30 00:55 -25.30197 -52.32623 32083 ft 413 kts 273°
2026-04-30 00:56 -25.30184 -52.38983 32076 ft 413 kts 273°
2026-04-30 00:56 -25.30170 -52.45331 32088 ft 413 kts 273°
2026-04-30 00:57 -25.30154 -52.51655 32093 ft 414 kts 273°
2026-04-30 00:57 -25.30136 -52.58031 32073 ft 414 kts 273°
2026-04-30 00:58 -25.30115 -52.64376 32087 ft 414 kts 273°
2026-04-30 00:58 -25.30091 -52.70762 32088 ft 414 kts 273°
2026-04-30 00:59 -25.30065 -52.77130 32080 ft 414 kts 273°
2026-04-30 00:59 -25.30094 -52.83501 32076 ft 417 kts 266°
2026-04-30 01:00 -25.30807 -52.86627 32095 ft 425 kts 252°
2026-04-30 01:00 -25.32212 -52.89491 32076 ft 435 kts 240°
2026-04-30 01:00 -25.34205 -52.92038 32086 ft 444 kts 229°
2026-04-30 01:00 -25.36767 -52.94041 32093 ft 459 kts 214°
2026-04-30 01:01 -25.42665 -52.96913 32093 ft 464 kts 210°
2026-04-30 01:01 -25.48631 -52.99681 32077 ft 464 kts 210°
2026-04-30 01:02 -25.54491 -53.02546 32083 ft 461 kts 213°
2026-04-30 01:02 -25.57119 -53.04514 32079 ft 444 kts 230°
2026-04-30 01:02 -25.59136 -53.07077 31224 ft 441 kts 243°
2026-04-30 01:03 -25.60458 -53.10051 30284 ft 432 kts 255°
2026-04-30 01:03 -25.61284 -53.13249 29240 ft 431 kts 258°
2026-04-30 01:03 -25.62028 -53.16478 28271 ft 431 kts 259°
2026-04-30 01:03 -25.62747 -53.19677 27499 ft 425 kts 258°
2026-04-30 01:04 -25.63462 -53.22838 26716 ft 420 kts 258°
2026-04-30 01:04 -25.64179 -53.25959 25950 ft 415 kts 257°
2026-04-30 01:04 -25.64888 -53.29001 25207 ft 410 kts 257°
2026-04-30 01:04 -25.65603 -53.32039 24452 ft 405 kts 257°
2026-04-30 01:05 -25.66314 -53.35047 23705 ft 401 kts 257°
2026-04-30 01:05 -25.67018 -53.38021 22966 ft 396 kts 256°
2026-04-30 01:05 -25.67714 -53.40957 22233 ft 392 kts 256°
2026-04-30 01:05 -25.68402 -53.43863 21501 ft 387 kts 256°
2026-04-30 01:06 -25.69082 -53.46741 20780 ft 383 kts 256°
2026-04-30 01:06 -25.69755 -53.49588 20051 ft 378 kts 256°
2026-04-30 01:06 -25.70417 -53.52392 19341 ft 374 kts 256°
2026-04-30 01:06 -25.71072 -53.55173 18638 ft 369 kts 255°
2026-04-30 01:07 -25.71708 -53.57876 17944 ft 365 kts 255°
2026-04-30 01:07 -25.72346 -53.60585 17264 ft 360 kts 255°
2026-04-30 01:07 -25.72977 -53.63266 16566 ft 356 kts 256°
2026-04-30 01:07 -25.73599 -53.65913 15886 ft 352 kts 256°
2026-04-30 01:08 -25.74214 -53.68530 15213 ft 348 kts 256°
2026-04-30 01:08 -25.74813 -53.71084 14548 ft 345 kts 256°
2026-04-30 01:08 -25.75415 -53.73651 13881 ft 342 kts 257°
2026-04-30 01:08 -25.76011 -53.76196 13230 ft 339 kts 257°
2026-04-30 01:09 -25.76602 -53.78720 12560 ft 337 kts 257°
2026-04-30 01:09 -25.77188 -53.81227 11900 ft 335 kts 257°
2026-04-30 01:09 -25.77770 -53.83722 11223 ft 333 kts 257°
2026-04-30 01:09 -25.78347 -53.86192 10772 ft 324 kts 257°
2026-04-30 01:10 -25.78890 -53.88511 10585 ft 299 kts 257°
2026-04-30 01:10 -25.79397 -53.90681 10450 ft 283 kts 257°
2026-04-30 01:10 -25.79882 -53.92762 10328 ft 274 kts 257°
2026-04-30 01:10 -25.80357 -53.94806 10225 ft 276 kts 257°
2026-04-30 01:11 -25.80833 -53.96859 10103 ft 270 kts 257°
2026-04-30 01:11 -25.81289 -53.98823 9806 ft 258 kts 256°
2026-04-30 01:11 -25.81729 -54.00719 9464 ft 249 kts 256°
2026-04-30 01:11 -25.82155 -54.02560 9129 ft 244 kts 256°
2026-04-30 01:12 -25.82576 -54.04370 8793 ft 247 kts 256°
2026-04-30 01:12 -25.83015 -54.06264 8452 ft 255 kts 256°
2026-04-30 01:12 -25.83468 -54.08215 7975 ft 265 kts 256°
2026-04-30 01:12 -25.83907 -54.10118 7554 ft 259 kts 256°
2026-04-30 01:13 -25.84353 -54.12050 7175 ft 254 kts 256°
2026-04-30 01:13 -25.84792 -54.13949 6860 ft 249 kts 256°
2026-04-30 01:13 -25.85224 -54.15820 6576 ft 252 kts 256°
2026-04-30 01:13 -25.85534 -54.17740 6277 ft 256 kts 272°
2026-04-30 01:14 -25.85082 -54.19623 6060 ft 257 kts 294°
2026-04-30 01:14 -25.84148 -54.21313 5756 ft 255 kts 299°
2026-04-30 01:14 -25.83430 -54.23118 4530 ft 257 kts 289°
2026-04-30 01:14 -25.82816 -54.24968 3519 ft 251 kts 290°
2026-04-30 01:15 -25.82216 -54.26657 3269 ft 222 kts 291°
2026-04-30 01:15 -25.81680 -54.28167 3109 ft 200 kts 292°
2026-04-30 01:15 -25.81155 -54.29527 3011 ft 184 kts 294°
2026-04-30 01:15 -25.80662 -54.30740 2984 ft 162 kts 294°
2026-04-30 01:16 -25.80222 -54.31802 3028 ft 141 kts 294°
2026-04-30 01:16 -25.79820 -54.32770 2990 ft 135 kts 294°
2026-04-30 01:16 -25.79421 -54.33725 3007 ft 138 kts 294°
2026-04-30 01:16 -25.79014 -54.34694 2995 ft 138 kts 294°
2026-04-30 01:17 -25.78614 -54.35650 2916 ft 140 kts 294°
2026-04-30 01:17 -25.78202 -54.36636 2744 ft 138 kts 294°
2026-04-30 01:17 -25.77806 -54.37581 2572 ft 136 kts 294°
2026-04-30 01:17 -25.77406 -54.38544 2394 ft 134 kts 295°
2026-04-30 01:18 -25.77012 -54.39483 2213 ft 134 kts 294°
2026-04-30 01:18 -25.76625 -54.40409 2042 ft 134 kts 294°
2026-04-30 01:18 -25.76232 -54.41346 1861 ft 133 kts 296°
2026-04-30 01:18 -25.75833 -54.42277 1685 ft 133 kts 294°
2026-04-30 01:19 -25.75452 -54.43207 1504 ft 132 kts 295°
2026-04-30 01:19 -25.75070 -54.44131 1339 ft 131 kts 295°
2026-04-30 01:19 -25.74684 -54.45065 1138 ft 136 kts 294°
2026-04-30 01:19 -25.74280 -54.46031 944 ft 138 kts 294°
2026-04-30 01:20 -25.73902 -54.46939 928 ft 116 kts 295°
2026-04-30 01:20 -25.73624 -54.47594 925 ft 72 kts 295°
2026-04-30 01:20 -25.73433 -54.48001 929 ft 40 kts 315°
2026-04-30 01:20 -25.73270 -54.48090 927 ft 23 kts 28°
2026-04-30 01:21 -25.73227 -54.47930 926 ft 22 kts 85°
2026-04-30 01:21 -25.73242 -54.47782 926 ft 10 kts 112°
2026-04-30 01:21 -25.73246 -54.47729 926 ft 4 kts 39°
2026-04-30 01:21 -25.73217 -54.47712 926 ft 5 kts 27°
2026-04-30 01:22 -25.73210 -54.47708 926 ft 0 kts 26°